INTELSAT 602 (IS-602) 1 20315U 89087A 10073.58629147 .00000035 00000-0 10000-3 0 214 2 20315 7.5530 62.7386 0001649 312.0394 186.2020 1.00274384 72431 INTELSAT 603 (IS-603) 1 20523U 90021A 10072.03501434 -.00000123 00000-0 00000+0 0 5750 2 20523 7.0313 64.3016 0002037 316.1079 145.3030 1.00391766 66176 SBS-6 1 20872U 90091A 10072.92558571 -.00000136 00000-0 10000-3 0 1627 2 20872 2.4539 76.9545 0005407 304.9767 55.5796 0.98991646 59454 INTELSAT 605 (IS-605) 1 21653U 91055A 10072.19473838 -.00000060 00000-0 00000+0 0 8827 2 21653 5.1040 69.9584 0004081 219.0710 141.1642 0.99327772 67977 INTELSAT 601 (IS-601) 1 21765U 91075A 10072.08762580 .00000119 00000-0 10000-3 0 9163 2 21765 5.1427 68.9363 0001140 344.9931 195.6978 1.00273715 67112 INTELSAT 701 (IS-701) 1 22871U 93066A 10072.43366697 .00000045 00000-0 10000-3 0 4862 2 22871 0.0053 143.1428 0002392 214.1586 149.7507 1.00273284 59909 INTELSAT 702 (IS-702) 1 23124U 94034A 10070.65065115 -.00000014 00000-0 00000-0 0 3449 2 23124 0.0274 328.9831 0002571 23.3295 117.0949 1.00273141 71806 INTELSAT 2 (IS-2) 1 23175U 94040A 10072.57975381 -.00000036 00000-0 10000-3 0 6104 2 23175 1.1251 79.6546 0002726 267.9925 201.2400 1.00272890 56733 INTELSAT 704 (IS-704) 1 23461U 95001A 10072.52980537 -.00000177 00000-0 10000-3 0 722 2 23461 0.7955 76.9596 0003427 167.3926 115.5898 0.99184019 55576 INTELSAT 705 (IS-705) 1 23528U 95013A 10073.08144497 -.00000278 00000-0 10000-3 0 9864 2 23528 0.3348 80.0148 0003414 278.1075 156.3880 1.00359905 54780 INTELSAT 706 (IS-706) 1 23571U 95023A 10068.62154281 .00000071 00000-0 00000-0 0 664 2 23571 0.0211 57.1371 0002898 309.3227 79.3074 1.00273380 54239 INTELSAT 3R (IS-3R) 1 23764U 96002A 10070.09294898 -.00000282 00000-0 10000-3 0 7632 2 23764 0.5873 80.4375 0002403 292.3951 146.1457 1.00271017 51861 HGS-3 1 23779U 96006A 10072.72594056 .00000147 00000-0 10000-3 0 3436 2 23779 0.0313 208.9270 0002889 155.1668 106.4635 1.00272542 51637 INTELSAT 707 (IS-707) 1 23816U 96015A 10070.45737170 -.00000297 00000-0 10000-3 0 9660 2 23816 0.0028 170.6241 0003117 186.8546 283.1485 1.00271013 51252 GALAXY 9 (G-9) 1 23877U 96033A 10073.45452226 -.00000229 00000-0 10000-3 0 2383 2 23877 1.4726 77.6596 0001997 284.1491 252.7159 1.00270538 50578 INTELSAT 709 (IS-709) 1 23915U 96035A 10073.61235286 .00000011 00000-0 10000-3 0 893 2 23915 0.0416 62.4826 0004040 231.1347 166.9387 1.00093842 50372 INTELSAT 801 (IS-801) 1 24742U 97009A 10072.11255431 -.00000221 00000-0 10000-3 0 7253 2 24742 1.3972 78.8358 0002461 278.5953 184.2077 1.00272539 47777 GALAXY 25 (G-25) 1 24812U 97026A 10072.34636606 -.00000170 00000-0 10000-3 0 337 2 24812 0.0112 150.1581 0003335 200.8207 211.4516 1.00271891 46905 INTELSAT 802 (IS-802) 1 24846U 97031A 10069.89133013 .00000142 00000-0 10000-3 0 9685 2 24846 0.0309 352.4412 0002402 12.3585 157.4260 1.00274304 46591 INTELSAT 5 (IS-5) 1 24916U 97046A 10073.64062891 -.00000035 00000-0 10000-3 0 9190 2 24916 0.0296 115.5789 0000481 252.9086 203.2411 1.00273014 46081 INTELSAT 805 (IS-805) 1 25371U 98037A 10071.30816146 -.00000296 00000-0 10000-3 0 4697 2 25371 0.0382 254.8722 0003313 110.4481 219.9280 1.00270344 42998 INTELSAT 7 (IS-7) 1 25473U 98052A 10072.93380293 -.00000033 00000-0 00000+0 0 9246 2 25473 0.0151 159.1832 0003248 185.3970 231.6809 1.00273448 42092 INTELSAT 8 (IS-8) 1 25522U 98065A 10073.46622211 -.00000061 00000-0 10000-3 0 7652 2 25522 0.0433 262.4797 0002785 90.4240 152.8829 1.00273463 41675 GALAXY 26 (G-26) 1 25626U 99005A 10069.61724983 .00000096 00000-0 00000-0 0 6138 2 25626 0.0361 348.3191 0002837 17.5101 75.2891 1.00273984 40557 INSAT-2E (APR-1) 1 25666U 99016A 10072.86378291 -.00000171 00000-0 10000-3 0 8313 2 25666 0.0534 273.1396 0000922 54.7981 237.3840 1.00270259 40206 GALAXY 27 (G-27) 1 25922U 99052A 10070.29960273 .00000000 00000-0 10000-3 0 6116 2 25922 0.0158 144.5479 0002438 212.0532 151.0898 1.00269946 38316 GALAXY 11 (G-11) 1 26038U 99071A 10069.89421667 .00000142 00000-0 10000-3 0 8499 2 26038 0.0262 342.6373 0000438 17.1500 163.3472 1.00273447 37529 GALAXY 4R (G-4R) 1 26298U 00020A 10072.42595914 -.00000294 00000-0 10000-3 0 7930 2 26298 3.3501 73.2492 0002637 191.4454 168.9774 0.99832739 36364 INTELSAT 9 (IS-9) 1 26451U 00043A 10073.08114396 -.00000291 00000-0 10000-3 0 3618 2 26451 0.0430 257.8367 0004925 26.2949 218.7049 1.00271784 35297 INTELSAT 12 (IS-12) 1 26590U 00068A 10072.78607630 .00000130 00000-0 00000+0 0 4126 2 26590 0.0028 153.4566 0002945 215.4601 130.3384 1.00272766 34351 INTELSAT 1R (IS-1R) 1 26608U 00072A 10070.37874192 -.00000295 00000-0 00000+0 0 1640 2 26608 0.1553 79.1556 0001129 333.5010 202.6162 1.00274657 34175 INTELSAT 10 (IS-10) 1 26766U 01019A 10073.61524209 -.00000029 00000-0 00000+0 0 5254 2 26766 0.0140 196.5069 0001274 181.8568 83.7079 1.00273311 32389 INTELSAT 901 (IS-901) 1 26824U 01024A 10071.08983376 -.00000152 00000-0 10000-3 0 5272 2 26824 0.0043 111.0322 0003331 238.1431 194.7748 1.00273432 32101 INTELSAT 902 (IS-902) 1 26900U 01039A 10073.71052282 .00000029 00000-0 00000+0 0 5321 2 26900 0.0158 156.4647 0003118 218.5712 114.9372 1.00273579 31303 INTELSAT 904 (IS-904) 1 27380U 02007A 10071.97787450 .00000040 00000-0 00000+0 0 5477 2 27380 0.0129 319.9774 0003322 47.5294 215.0041 1.00272145 29539 INTELSAT 903 (IS-903) 1 27403U 02016A 10072.03306920 -.00000247 00000-0 00000+0 0 3131 2 27403 0.0051 267.3583 0002476 106.1666 134.4118 1.00271628 29193 INTELSAT 905 (IS-905) 1 27438U 02027A 10069.96246051 -.00000198 00000-0 10000-3 0 1359 2 27438 0.0379 229.4626 0005184 150.4336 110.5510 1.00271303 28499 GALAXY 3C (G-3C) 1 27445U 02030A 10070.48883564 -.00000163 00000-0 00000+0 0 1375 2 27445 0.0123 28.0075 0000487 128.7071 93.2167 1.00271827 28373 INTELSAT 906 (IS-906) 1 27513U 02041A 10073.71272674 .00000010 00000-0 10000-3 0 3160 2 27513 0.0353 288.9222 0002417 73.1530 130.8410 1.00272435 27580 INTELSAT 907 (IS-907) 1 27683U 03007A 10071.21208657 -.00000213 00000-0 10000-3 0 8727 2 27683 0.0322 10.2972 0002863 355.2701 213.0075 1.00271659 25914 GALAXY 12 (G-12) 1 27715U 03013B 10073.15478875 .00000018 00000-0 10000-3 0 2643 2 27715 0.0312 284.7118 0000478 82.3886 97.3986 1.00274503 25455 GALAXY 23 (G-23) 1 27854U 03034A 10073.50812875 .00000008 00000-0 00000+0 0 1318 2 27854 0.0142 232.7699 0002875 132.1215 229.0381 1.00273578 24217 GALAXY 13 (HORIZONS-1) 1 27954U 03044A 10071.58940075 .00000038 00000-0 10000-3 0 115 2 27954 0.0076 190.7808 0002725 249.0078 175.5041 1.00273778 23677 INTELSAT 10-02 1 28358U 04022A 10071.90565025 -.00000020 00000-0 10000-3 0 8216 2 28358 0.0173 147.3745 0000883 186.1324 161.9717 1.00272358 21063 GALAXY 28 (G-28) 1 28702U 05022A 10071.07616929 -.00000196 00000-0 10000-3 0 7862 2 28702 0.0375 95.6190 0001209 288.2148 84.1565 1.00271044 17322 GALAXY 14 (G-14) 1 28790U 05030A 10068.39687987 .00000022 00000-0 10000-3 0 8803 2 28790 0.0305 292.0761 0002303 53.2714 199.4828 1.00272905 16715 GALAXY 15 (G-15) 1 28884U 05041A 10073.51011341 .00000074 00000-0 10000-3 0 7822 2 28884 0.0208 272.4865 0002389 78.2854 231.8667 1.00273930 16197 GALAXY 16 (G-16) 1 29236U 06023A 10073.15046752 -.00000132 00000-0 10000-3 0 6802 2 29236 0.0240 154.0190 0003017 198.1498 134.6200 1.00271103 13714 GALAXY 17 (G-17) 1 31307U 07016B 10068.52668539 -.00000189 00000-0 10000-3 0 4568 2 31307 0.0103 150.6807 0003155 197.9825 277.0234 1.00271329 10474 INTELSAT 11 (IS-11) 1 32253U 07044B 10070.09294898 -.00000282 00000-0 00000+0 0 3409 2 32253 0.0147 165.5561 0003249 164.9107 188.6157 1.00270227 8942 HORIZONS 2 1 32388U 07063B 10071.44188297 -.00000263 00000-0 10000-3 0 3464 2 32388 0.0321 254.0331 0001925 118.8171 242.1122 1.00270345 8301 GALAXY 18 (G-18) 1 32951U 08024A 10073.15235829 .00000019 00000-0 10000-3 0 2795 2 32951 0.0178 150.2563 0002803 197.8900 115.3429 1.00273961 6669 INTELSAT 25 (IS-25) 1 33153U 08034A 10071.21208657 -.00000259 00000-0 99999-4 0 3552 2 33153 0.0136 162.1560 0003666 223.5675 193.1807 0.99729741 6170 INTELSAT 14 (IS-14) 1 36097U 09064A 10073.08148458 -.00000280 00000-0 00000+0 0 590 2 36097 0.0044 221.5841 0002199 159.5048 134.8117 1.00272291 1157 INTELSAT 15 (IS-15) 1 36106U 09067A 10072.71430465 -.00000192 00000-0 00000-0 0 554 2 36106 0.0242 120.8062 0002399 242.5586 150.1394 1.00270852 1043 INTELSAT 16 (IS-16) 1 36397U 10006A 10072.76758196 -.00000272 00000-0 10000-3 0 384 2 36397 0.0515 333.2215 0012795 299.1231 125.3437 0.99656027 291